This demonstration page uses our WeatherBlox Daily Observations layout. Learn more.

Left ArrowRight Arrow

31.84235, -102.49876

Hourly Observations for May 8, 2022

Temp ( °F °C ) Dew Point ( °F °C ) Humidity (%) Winds ( mph kmh ) Pressure ( in mb ) Visibility ( mi km ) Precip ( " mm )
12:53 am 00:53 Clear 79 26.1 9 -12.8 7 7 W 8 13 29.54 1000 10 16 0.00 0.00
1:53 am 01:53 Clear 81 27.2 9 -12.8 6 6 WSW 12 19 29.53 1000 10 16 0.00 0.00
2:53 am 02:53 Clear 75 23.9 8 -13.3 7 7 SW 7 11 29.52 1000 10 16 0.00 0.00
3:53 am 03:53 Clear 75 23.9 10 -12.2 8 8 SW 9 15 29.53 1000 10 16 0.00 0.00
4:53 am 04:53 Clear 72 22.2 14 -10 11 11 SW 9 15 29.55 1001 10 16 0.00 0.00
5:53 am 05:53 Clear 69 20.6 14 -10 12 12 SSW 7 11 29.56 1001 10 16 0.00 0.00
6:53 am 06:53 Clear 67 19.4 13 -10.6 12 12 S 7 11 29.59 1002 10 16 0.00 0.00
7:53 am 07:53 Sunny 69 20.6 13 -10.6 11 11 SW 7 11 29.61 1003 10 16 0.00 0.00
8:53 am 08:53 Sunny 77 25 14 -10 9 9 SW 9 15 29.62 1003 10 16 0.00 0.00
9:53 am 09:53 Sunny 84 28.9 15 -9.4 7 7 WSW 15 24 29.63 1003 10 16 0.00 0.00
10:53 am 10:53 Sunny 89 31.7 16 -8.9 7 7 WSW 15 24 29.62 1003 10 16 0.00 0.00
11:53 am 11:53 Sunny 93 33.9 18 -7.8 6 6 WSW 14 22 29.60 1002 10 16 0.00 0.00
12:53 pm 12:53 Sunny 96 35.6 18 -7.8 6 6 W 20 31 29.58 1002 10 16 0.00 0.00
1:53 pm 13:53 Sunny 98 36.7 17 -8.3 5 5 W 16 26 29.55 1001 10 16 0.00 0.00
2:53 pm 14:53 Sunny 99 37.2 16 -8.9 5 5 W 22 35 29.54 1000 10 16 0.00 0.00
3:53 pm 15:53 Sunny 99 37.2 15 -9.4 5 5 SW 21 33 29.51 999 10 16 0.00 0.00
4:53 pm 16:53 Sunny 100 37.8 16 -8.9 5 5 SW 22 35 29.49 999 10 16 0.00 0.00
5:53 pm 17:53 Sunny 99 37.2 16 -8.9 5 5 WSW 21 33 29.48 998 10 16 0.00 0.00
6:53 pm 18:53 Sunny 99 37.2 14 -10 4 4 WSW 21 33 29.47 998 10 16 0.00 0.00
7:53 pm 19:53 Sunny 96 35.6 11 -11.7 4 4 W 10 17 29.48 998 10 16 0.00 0.00
8:53 pm 20:53 Clear 90 32.2 10 -12.2 5 5 WSW 8 13 29.49 999 10 16 0.00 0.00
9:53 pm 21:53 Clear 85 29.4 10 -12.2 6 6 W 7 11 29.51 999 10 16 0.00 0.00
10:53 pm 22:53 Clear 83 28.3 9 -12.8 6 6 W 14 22 29.52 1000 10 16 0.00 0.00
11:53 pm 23:53 Clear 76 24.4 9 -12.8 7 7 WSW 7 11 29.53 1000 10 16 0.00 0.00

Powered by AerisWeather